Omak, WA

10:54 PM PDT on August 17, 2019 (GMT -0700)
Omak

Weather History for KOMK - July, 2019

Change the Weather History Date:

Sunday, July 21, 2019

  Actual Average Record
Temperature  
Mean Temperature 73 °F 74 °F  
Max Temperature 89 °F 90 °F 105 °F (1938)
Min Temperature 57 °F 59 °F 42 °F (1914)
Degree Days  
Heating Degree Days 0 0  
Month to date heating degree days 0 11  
Since 1 June heating degree days 56 80  
Since 1 July heating degree days 0 11  
Cooling Degree Days 8 9  
Month to date cooling degree days 138 153  
Year to date cooling degree days 288 260  
Since 1 June cooling degree days 260 237  
Growing Degree Days 23 (Base 50)    
Moisture  
Dew Point 42 °F    
Average Humidity 40    
Maximum Humidity 62    
Minimum Humidity 17    
Precipitation  
Precipitation 0.00 in 0.03 in 0.29 in (1965)
Month to date precipitation 0.15 0.59  
Year to date precipitation 5.03 8.57  
Sea Level Pressure  
Sea Level Pressure 30.02 in    
Wind  
Wind Speed 7 mph (NW)    
Max Wind Speed 16 mph    
Max Gust Speed 18 mph    
Visibility 10 miles    
Events      
T = Trace of Precipitation, MM = Missing Value Source: NWS Daily Summary

Daily Weather History Graph

Daily Weather History Graph

Search for Another Location

Airport or City:

Astronomy

Jul. 21, 2019 Rise Set
Actual Time 5:18 AM PDT 8:49 PM PDT
Civil Twilight 4:39 AM PDT 9:28 PM PDT
Nautical Twilight 3:47 AM PDT 10:19 PM PDT
Astronomical Twilight 2:37 AM PDT 11:29 PM PDT
Moon 11:25 PM PDT (7/21) 10:02 AM PDT (7/21)
Length of Visible Light 16h 48m
Length of Day
15h 30m
Waning Gibbous, 79% of the Moon is Illuminated
Jul 21
Waning Gibbous
Jul 24
Last Quarter
Jul 31
New
Aug 7
First Quarter
Aug 15
Full

Hourly Weather History & Observations

Time (PDT) Temp. Dew Point Humidity Pressure Visibility Wind Dir Wind Speed Gust Speed Precip Events Conditions
12:53 AM 63.0 °F 44.1 °F 50% 30.07 in 10.0 mi WNW 8.1 mph - N/A   Clear
1:53 AM 63.0 °F 44.1 °F 50% 30.08 in 10.0 mi North 6.9 mph - N/A   Clear
2:53 AM 57.9 °F 44.1 °F 60% 30.08 in 10.0 mi NNW 8.1 mph - N/A   Clear
3:53 AM 57.0 °F 44.1 °F 62% 30.08 in 10.0 mi North 8.1 mph - N/A   Clear
4:53 AM 59.0 °F 44.1 °F 58% 30.08 in 10.0 mi North 10.4 mph - N/A   Clear
5:53 AM 57.9 °F 43.0 °F 58% 30.09 in 10.0 mi North 10.4 mph - N/A   Clear
6:53 AM 61.0 °F 44.1 °F 54% 30.10 in 10.0 mi North 9.2 mph - N/A   Clear
7:53 AM 66.0 °F 46.0 °F 48% 30.10 in 10.0 mi North 9.2 mph - N/A   Clear
8:53 AM 71.1 °F 46.9 °F 42% 30.09 in 10.0 mi North 10.4 mph - N/A   Clear
9:53 AM 75.9 °F 46.0 °F 35% 30.08 in 10.0 mi North 9.2 mph - N/A   Clear
10:53 AM 79.0 °F 44.1 °F 29% 30.06 in 10.0 mi Calm Calm - N/A   Clear
11:53 AM 81.0 °F 42.1 °F 25% 30.05 in 10.0 mi SSW 5.8 mph - N/A   Clear
12:53 PM 82.9 °F 42.1 °F 24% 30.03 in 10.0 mi Variable 4.6 mph - N/A   Clear
1:53 PM 86.0 °F 43.0 °F 22% 30.01 in 10.0 mi Variable 3.5 mph - N/A   Clear
2:53 PM 88.0 °F 41.0 °F 19% 29.99 in 10.0 mi Variable 4.6 mph - N/A   Clear
3:53 PM 88.0 °F 39.9 °F 18% 29.97 in 10.0 mi South 9.2 mph - N/A   Clear
4:53 PM 89.1 °F 41.0 °F 19% 29.95 in 10.0 mi SW 8.1 mph - N/A   Clear
5:53 PM 89.1 °F 39.0 °F 17% 29.94 in 10.0 mi SW 6.9 mph - N/A   Clear
6:53 PM 88.0 °F 37.9 °F 17% 29.93 in 10.0 mi SW 5.8 mph - N/A   Clear
7:53 PM 84.9 °F 37.0 °F 18% 29.92 in 10.0 mi WSW 3.5 mph - N/A   Clear
8:53 PM 75.9 °F 37.9 °F 25% 29.93 in 10.0 mi Calm Calm - N/A   Clear
9:53 PM 73.9 °F 37.9 °F 27% 29.94 in 10.0 mi WNW 15.0 mph - N/A   Clear
10:53 PM 73.0 °F 37.9 °F 28% 29.94 in 10.0 mi WNW 11.5 mph - N/A   Clear
11:53 PM 69.1 °F 37.9 °F 32% 29.95 in 10.0 mi WNW 10.4 mph - N/A   Clear